AirNav   Air Wisconsin Airman Trainee
 
 1392 users online  

MU27 Woodfield Airpark Inc
Lockwood, Missouri, USA

GOING TO LOCKWOOD?


FAA INFORMATION EFFECTIVE 31 JANUARY 2019

Location

FAA Identifier: MU27
Lat/Long: 37-28-05.1650N / 093-55-45.7740W
37-28.086083N / 093-55.762900W
37.4681014 / -93.9293817
(estimated)
Elevation: 1050 ft. / 320 m (estimated)
Variation: 05E (1985)
From city: 4 miles NE of LOCKWOOD, MO
Time zone: UTC -6 (UTC -5 during Daylight Saving Time)
Zip code: 65682

Airport Operations

Airport use: Private use. Permission required prior to landing
Activation date: 06/1981
Control tower: no
ARTCC: KANSAS CITY CENTER
FSS: COLUMBIA FLIGHT SERVICE STATION
Attendance: CONTINUOUS
Wind indicator: yes
Segmented circle: no

Nearby radio navigation aids

VOR radial/distance  VOR name  Freq  Var
SGFr279/29.2SPRINGFIELD VORTAC116.9004E

Airport Services

Runway Information

Runway E/W

Dimensions: 2600 x 120 ft. / 792 x 37 m
Surface: turf
RUNWAY E  RUNWAY W
Traffic pattern: leftleft

Runway NE/SW

Dimensions: 1700 x 120 ft. / 518 x 37 m
Surface: turf
RUNWAY NE  RUNWAY SW
Traffic pattern: leftleft

Airport Ownership and Management from official FAA records

Ownership: Privately-owned
Owner: WOODFIELD AIRPORT OWNERS LLC
22 WOODFIELD LN
GREENFIELD, MO 65661
Phone (253) 820-4967
Manager: DAVID KRAHN
22 WOODFIELD LN
GREENFIELD, MO 65661
Phone (253) 820-4967

Airport Operational Statistics

Aircraft based on the field: 2
Single engine airplanes: 2
    

Instrument Procedures

There are no published instrument procedures at MU27.

Some nearby airports with instrument procedures:

MO3 - Stockton Municipal Airport (13 nm NE)
KLLU - Lamar Municipal Airport (18 nm W)
M17 - Bolivar Municipal Airport (29 nm E)
KSGF - Springfield-Branson National Airport (29 nm SE)
KNVD - Nevada Municipal Airport (29 nm NW)
 
Loc | Ops | Rwys | IFR | FBO | Links
Com | Nav | Svcs | Stats | Notes

Kansas City Aviation Department
 
Area around MU27 (Woodfield Airpark Inc)
 
Road maps at: MapQuest Bing Google
 
Aerial photo
No photo
 
Sectional chart

 
Airport distance calculator
Flying to Woodfield Airpark Inc? Find the distance to fly.

From to MU27

Sunrise and sunset
Times for 18-Feb-2019
 Local
(UTC-6)
 Zulu
(UTC)
Morning civil twilight06:3612:36
Sunrise07:0213:02
Sunset17:5723:57
Evening civil twilight18:2400:24

Current date and time
Zulu (UTC)  18-Feb-2019 21:38:31
Local (UTC-6)  18-Feb-2019 15:38:31
 
METAR
KSGF 
30nm SE 
182052Z 35004KT 10SM CLR 01/M07 A3041 RMK AO2 SLP313 T00111072 55004
KJLN 
33nm SW 
182053Z 01005KT 10SM CLR 01/M07 A3046 RMK AO2 SLP325 T00061072 55003
KHFJ 
34nm S 
182115Z AUTO 01003KT 10SM SCT025 00/M06 A3042 RMK AO2
KPTS 
38nm W 
182115Z AUTO 03006KT 10SM CLR 00/M08 A3045 RMK AO2 T10011077
KEOS 
45nm SW 
SuperAWOS
182115Z AUTO 00000KT 10SM 01/M04 A3039
TAF
KSGF 
30nm SE 
181800Z 1820/1918 35008KT P6SM SKC FM182300 02008KT P6SM FEW200 FM190300 05009KT P6SM SCT200 FM190800 08012KT P6SM BKN200
KJLN 
33nm SW 
181800Z 1820/1918 36007KT P6SM FEW200 FM182300 03007KT P6SM FEW200 FM190700 06008KT P6SM SCT200 FM191000 09012KT P6SM BKN200
NOTAMs
Click for the latest NOTAMs
NOTAMs are issued by the DoD/FAA and will open in a separate window not controlled by AirNav.

 

 
 

Would you like to see your business listed on this page?

 If your business provides an interesting product or service to pilots, flight crews, aircraft, or users of the Woodfield Airpark Inc, you should consider listing it here.  To start the listing process, click on the button below
 
Add a business
 

Other Pages about Woodfield Airpark Inc

Update a link
 
Copyright © AirNav, LLC. All rights reserved. Privacy Policy  Contact